Weather History for Estherville, IA

Change the Weather History Date:

Saturday, March 30, 2013

  Actual Average Record
Temperature  
Mean Temperature 46 °F 39 °F  
Max Temperature 59 °F 49 °F 85 °F (1986)
Min Temperature 33 °F 30 °F -5 °F (1969)
Degree Days  
Heating Degree Days 19 26  
Month to date heating degree days 1165 974  
Since 1 July heating degree days 6804 6889  
Cooling Degree Days 0 0  
Month to date cooling degree days 0 0  
Year to date cooling degree days 0 0  
Moisture  
Dew Point 40 °F    
Average Humidity 72    
Maximum Humidity 92    
Minimum Humidity 51    
Precipitation  
Precipitation 0.00 in 0.10 in 0.66 in (2006)
Month to date precipitation 1.05 1.55  
Sea Level Pressure  
Sea Level Pressure 29.93 in    
Wind  
Wind Speed 13 mph (WNW)    
Max Wind Speed 23 mph    
Max Gust Speed 31 mph    
Visibility 8 miles    
Events      
T = Trace of Precipitation, MM = Missing Value Source: NWS Daily Summary

Daily Weather History Graph

Daily Weather History Graph

Search for Another Location

Airport:

Trip Planner

Search our weather history database for the weather conditions in past years. The results will help you decide how hot, cold, wet, or windy it might be!

Date:

Astronomy

Mar. 30, 2013 Rise Set
Actual Time 7:03 AM CDT 7:43 PM CDT
Civil Twilight 6:35 AM CDT 8:12 PM CDT
Nautical Twilight 6:01 AM CDT 8:46 PM CDT
Astronomical Twilight 5:25 AM CDT 9:21 PM CDT
Moon 11:58 PM CDT (3/30) 8:53 AM CDT (3/30)
Length of Visible Light 13h 37m
Length of Day
12h 39m
Waning Gibbous, 86% of the Moon is Illuminated
Mar 30
Waning Gibbous
Apr 2
Last Quarter
Apr 10
New
Apr 18
First Quarter
Apr 25
Full

Hourly Weather History & Observations

Time (CDT) Temp. Windchill Dew Point Humidity Pressure Visibility Wind Dir Wind Speed Gust Speed Precip Events Conditions
12:52 AM 41.0 °F 33.9 °F 34.0 °F 76% 30.02 in 10.0 mi South 12.7 mph - N/A   Clear
1:52 AM 39.9 °F 32.5 °F 34.0 °F 79% 30.02 in 10.0 mi South 12.7 mph - N/A   Clear
2:52 AM 39.0 °F 32.8 °F 33.1 °F 79% 30.00 in 10.0 mi South 9.2 mph - N/A   Clear
3:52 AM 39.0 °F 32.3 °F 33.1 °F 79% 29.98 in 10.0 mi SSW 10.4 mph - N/A   Clear
4:52 AM 41.0 °F 34.3 °F 34.0 °F 76% 29.96 in 10.0 mi SSW 11.5 mph - N/A   Clear
5:52 AM 45.0 °F 38.2 °F 37.9 °F 76% 29.92 in 10.0 mi SSW 15.0 mph - N/A   Clear
6:52 AM 46.9 °F - 41.0 °F 80% 29.92 in 10.0 mi SW 17.3 mph 20.7 mph N/A   Scattered Clouds
7:52 AM 48.0 °F - 42.1 °F 80% 29.91 in 10.0 mi SW 20.7 mph - N/A   Mostly Cloudy
8:52 AM 48.0 °F - 42.1 °F 80% 29.91 in 10.0 mi SSW 18.4 mph 26.5 mph N/A   Overcast
9:52 AM 50.0 °F - 44.1 °F 80% 29.92 in 10.0 mi SW 13.8 mph - N/A   Overcast
10:45 AM 51.8 °F - 44.6 °F 76% 29.91 in 10.0 mi West 15.0 mph - N/A   Overcast
10:52 AM 51.1 °F - 45.0 °F 80% 29.92 in 10.0 mi West 17.3 mph - N/A   Overcast
11:41 AM 53.6 °F - 46.4 °F 77% 29.91 in 10.0 mi WNW 18.4 mph - N/A   Mostly Cloudy
11:49 AM 53.6 °F - 46.4 °F 77% 29.90 in 9.0 mi WNW 19.6 mph - N/A   Scattered Clouds
11:52 AM 54.0 °F - 46.0 °F 75% 29.92 in 9.0 mi WNW 19.6 mph - N/A   Scattered Clouds
12:52 PM 57.0 °F - 44.1 °F 62% 29.91 in 10.0 mi NNW 17.3 mph 24.2 mph N/A   Partly Cloudy
1:52 PM 55.9 °F - 44.1 °F 64% 29.91 in 8.0 mi NNW 19.6 mph 26.5 mph N/A   Partly Cloudy
2:52 PM 55.0 °F - 43.0 °F 64% 29.91 in 9.0 mi NNW 12.7 mph - N/A   Clear
3:52 PM 57.0 °F - 42.1 °F 57% 29.91 in 10.0 mi North 13.8 mph - N/A   Partly Cloudy
4:52 PM 57.0 °F - 39.9 °F 53% 29.90 in 10.0 mi North 12.7 mph - N/A   Scattered Clouds
5:52 PM 55.9 °F - 42.1 °F 60% 29.89 in 8.0 mi NNW 12.7 mph - N/A   Clear
6:52 PM 52.0 °F - 42.1 °F 69% 29.89 in 7.0 mi North 12.7 mph - N/A   Clear
7:52 PM 46.0 °F 41.9 °F 39.9 °F 79% 29.91 in 6.0 mi North 8.1 mph - N/A   Haze
8:52 PM 42.1 °F 36.6 °F 39.0 °F 89% 29.92 in 7.0 mi NNW 9.2 mph - N/A   Clear
9:52 PM 39.9 °F 33.9 °F 37.0 °F 89% 29.93 in 4.0 mi NNW 9.2 mph - N/A   Clear
10:52 PM 37.0 °F 31.0 °F 35.1 °F 93% 29.94 in 3.0 mi NNW 8.1 mph - N/A   Clear
10:59 PM 35.6 °F 29.9 °F 33.8 °F 93% 29.91 in 2.5 mi NW 6.9 mph - N/A   Clear
11:15 PM 35.6 °F 30.7 °F 33.8 °F 93% 29.91 in 3.0 mi NW 5.8 mph - N/A   Clear
11:33 PM 35.6 °F 30.7 °F 33.8 °F 93% 29.91 in 2.5 mi NW 5.8 mph - N/A   Clear
11:52 PM 36.0 °F 29.0 °F 34.0 °F 93% 29.93 in 3.0 mi NNW 9.2 mph - N/A   Clear